Flag for U.S.A. Weather past 2 weeks in New York, New York, U.S.A.

Now
33 °F

Clear.


Feels Like: 25 °F
Forecast: 17 / 34 °F
Wind: 9 mph from Northwest

Location: New York City - Central Park

Current Time: Mar 2, 2015 at 8:45:17 PM

Latest Report: Mar 2, 2015 at 7:51 PM


Visibility: 10 mi

Pressure: 30.27 "Hg

Humidity: 36%

Dew point: 9 °F

Location of New YorkLocation

Historic Weather in New York — Graph

°F

New York temperature yesterday

Maximum temperature yesterday: 30 °F (at 8:51 AM)
Minimum temperature yesterday: 25 °F (at 2:51 AM)
Average temperature yesterday: 27 °F

Past Weeks' High & Low Weather Summary

 TemperatureHumidityPressure
High43 °F (Feb 22, 2:51 PM)88% (Feb 21, 11:51 PM)30.81 "Hg (Feb 21, 11:51 PM)
Low2 °F (Feb 20, 5:51 AM)23% (Feb 16, 2:51 PM)29.71 "Hg (Feb 19, 12:51 AM)
Average23 °F49%30.17 "Hg
* Reported Feb 15 6:51 PM — Mar 2 6:51 PM, New York, Weather by CustomWeather, © 2015

Note: Actual official high and low records may vary slightly from our data, if they occured in-between our weather recording intervals... More about our weather records

Advertising

New York weather history for previous 24 hours

 ConditionsComfort  
Time TempWeatherWind HumidityBarometerVisibility
6:51 PM
Mon, Mar 2
35 °FClear.12 mph35%30.25 "Hg10 mi
5:51 PM36 °FClear.9 mph35%30.20 "Hg10 mi
4:51 PM38 °FSunny.7 mph33%30.17 "Hg10 mi
3:51 PM38 °FSunny.9 mph33%30.16 "Hg10 mi
2:51 PM38 °FSunny.13 mph33%30.14 "Hg10 mi
1:51 PM38 °FSunny.3 mph34%30.13 "Hg10 mi
12:51 PM36 °FSunny.13 mph37%30.14 "Hg10 mi
11:51 AM36 °FSunny.12 mph38%30.15 "Hg10 mi
10:51 AM34 °FMore clouds than sun.15 mph50%30.15 "Hg10 mi
9:51 AM35 °FPassing clouds.9 mph56%30.12 "Hg9 mi
8:51 AM34 °FOvercast.N/A70%30.10 "Hg6 mi
7:51 AM33 °FMostly cloudy.6 mph72%30.07 "Hg5 mi
6:51 AM32 °FOvercast.6 mph75%30.03 "Hg6 mi
5:51 AM31 °FOvercast.3 mph76%30.01 "Hg8 mi
4:51 AM30 °FOvercast.5 mph79%30.02 "Hg8 mi
3:51 AM30 °FMostly cloudy.6 mph79%30.04 "Hg8 mi
2:51 AM30 °FOvercast.6 mph79%30.06 "Hg7 mi
1:51 AM29 °FLow clouds.3 mph79%30.09 "Hg6 mi
12:51 AM28 °FMostly cloudy.No wind81%30.11 "Hg6 mi
11:51 PM
Sun, Mar 1
28 °FOvercast.No wind78%30.14 "Hg6 mi
10:51 PM28 °FOvercast.3 mph78%30.18 "Hg6 mi
9:51 PM28 °FLight snow. Overcast.3 mph81%30.22 "Hg5 mi
8:51 PM27 °FOvercast.No wind81%30.25 "Hg4 mi
8:02 PM28 °FLight snow. Mostly cloudy.No wind81%30.31 "Hg1 mi
Weather by CustomWeather, © 2015

See weather overviewHow to use our weather pages